[Iaude] MPEC A162: 2024 AF4 [a=2.11,e=0.51,i=3.8,H=26.2]

mpec at marsden.cfa.harvard.edu mpec at marsden.cfa.harvard.edu
Mon Jan 15 00:48:03 EST 2024


M.P.E.C. 2024-A162                             Issued 2024 January 15, 05:46 UT

     The Minor Planet Electronic Circulars contain information on unusual
         minor planets, routine data on comets and natural satellites,
         and occasional editorial announcements.  They are published
    on behalf of Division F of the International Astronomical Union by the
          Minor Planet Center, Smithsonian Astrophysical Observatory,
                          Cambridge, MA 02138, U.S.A.
			  
             Prepared using the Tamkin Foundation Computer Network

                              MPC at CFA.HARVARD.EDU
            URL https://www.minorplanetcenter.net/    ISSN 1523-6714

                                    2024 AF4                                    


Observations:
     K24A04F*1C2024 01 13.29451207 43 18.023+07 20 20.54         19.68GVEA162G96
     K24A04F 1C2024 01 13.30485207 43 27.340+07 21 05.33         20.05GVEA162G96
     K24A04F 1C2024 01 13.31003007 43 31.991+07 21 27.68         19.97GVEA162G96
     K24A04F KC2024 01 13.36564707 44 22.042+07 25 28.09         20.61GVEA162V06
     K24A04F KC2024 01 13.36629207 44 22.621+07 25 31.12         20.79GVEA162V06
     K24A04F IC2024 01 13.95428607 53 46.55 +08 06 38.2          20.6 GVEA162L01
     K24A04F pC2024 01 13.95638207 53 48.40 +08 06 47.0          20.7 GVEA162L01
     K24A04F pC2024 01 13.95872307 53 50.51 +08 06 56.4          20.3 GVEA162L01
     K24A04F  C2024 01 15.20197608 12 55.198+09 29 55.13         20.3 GVEA162H01
     K24A04F  C2024 01 15.21654408 13 07.505+09 30 51.61         19.7 GVEA162H01
     K24A04F  C2024 01 15.22300408 13 12.912+09 31 16.47         20.4 GVEA162H01
     K24A04F  C2024 01 15.22944408 13 18.342+09 31 41.75         20.1 GVEA162H01

Observer details:
G96 Mt. Lemmon Survey.  Observer H. Groeller.  Measurers T. Beuden, V. F.
    Carvajal, D. Fay, J. B. Fazekas, D. C. Fuls, A. R. Gibbs, A. D. Grauer, H.
    Groeller, J. K. Hogan, R. A. Kowalski, S. M. Larson, G. J. Leonard, D.
    Rankin, R. L. Seaman, F. C. Shelly, K. W. Wierzchos.  1.5-m reflector +
    10K CCD.
H01 Magdalena Ridge Observatory, Socorro.  Observers W. H. Ryan, E. V. Ryan.
    Measurer W. H. Ryan.  2.4-m f/8.9 Ritchey-Chretien + CCD.
L01 Visnjan Observatory, Tican.  Observers K. Korlevic, L. Poropat.  Measurer
    K. Korlevic.  1.0-m f/2.9 reflector + CCD.
V06 Catalina Sky Survey-Kuiper.  Observer K. W. Wierzchos.  Measurers T.
    Beuden, V. F. Carvajal, D. Fay, J. B. Fazekas, D. C. Fuls, A. R. Gibbs, A.
    D. Grauer, H. Groeller, J. K. Hogan, R. A. Kowalski, S. M. Larson, G. J.
    Leonard, D. Rankin, R. L. Seaman, F. C. Shelly, K. W. Wierzchos.  1.55-m
    reflector + 1K CCD.

Orbital elements:
2024 AF4                                                 Earth MOID = 0.0463 AU
Epoch 2023 Sept. 13.0 TT = JDT 2460200.5                MPC                     
M 323.32107              (2000.0)            P               Q                  
n   0.32114635     Peri.  340.76782     -0.22582212     -0.97252685             
a   2.1118710      Node   122.24676     +0.90231196     -0.23068683             
e   0.5139103      Incl.    3.83263     +0.36720225     -0.03122690             
P   3.07           H   26.21          G   0.15           U   8                  
Residuals in seconds of arc
240113 G96  0.1+  0.2+    240113 V06  0.1-  0.1+    240115 H01  0.1-  0.1+
240113 G96  0.1+  0.1-    240113 L01  0.0   0.3+    240115 H01  0.2+  0.1-
240113 G96  0.0   0.2-    240113 L01  0.3-  0.4+    240115 H01  0.2-  0.2-
240113 V06  0.1-  0.2-    240113 L01  0.1+  0.0     240115 H01  0.2+  0.1+

Ephemeris:
2024 AF4                 a,e,i = 2.11, 0.51, 4                   q = 1.0266
Date    TT    R. A. (2000) Decl.     Delta      r    Elong.  Phase     V
2023 12 16    03 04 42.5 -10 45 45   0.1047  1.0554   130.6    45.1    23.2
...
2023 12 31    04 29 25.6 -07 09 42   0.06122 1.0285   136.4    41.3    21.8
...
2024 01 08    06 15 25.8 +00 30 32   0.04840 1.0271   154.0    24.8    20.8
...
2024 01 14    07 54 27.5 +08 11 31   0.04986 1.0321   166.2    13.1    20.5
2024 01 15    08 09 47.3 +09 18 17   0.05112 1.0334   166.4    12.9    20.6
2024 01 16    08 24 22.7 +10 19 50   0.05264 1.0348   166.1    13.2    20.7
...
2024 01 22    09 34 02.3 +14 40 44   0.06613 1.0465   160.1    18.7    21.4
...
2024 01 30    10 26 26.5 +17 19 09   0.09144 1.0693   156.2    21.8    22.2
...
2024 02 14    11 02 44.3 +19 01 04   0.1512  1.1314   161.0    16.5    23.3

A. U. Tomatic                (C) Copyright 2024 MPC           M.P.E.C. 2024-A162





More information about the Iaude mailing list